Change the Weather History Date:

Sunday, December 23, 2012

  Actual Average Record
Temperature  
Mean Temperature 15 °F -  
Max Temperature 23 °F 34 °F 80 °F (1964)
Min Temperature 7 °F 13 °F -29 °F (1989)
Degree Days  
Heating Degree Days 50    
Moisture  
Dew Point 13 °F    
Average Humidity 88    
Maximum Humidity 92    
Minimum Humidity 80    
Precipitation  
Precipitation 0.00 in - - ()
Sea Level Pressure  
Sea Level Pressure 29.96 in    
Wind  
Wind Speed 6 mph (NNW)    
Max Wind Speed 12 mph    
Max Gust Speed -    
Visibility 7 miles    
Events Fog , Snow    
Averages and records for this station are not official NWS values.
T = Trace of Precipitation, MM = Missing Value Source: NWS Daily Summary

Daily Weather History Graph

Daily Weather History Graph

Search for Another Location

Airport or City:

Trip Planner

Search our weather history database for the weather conditions in past years. The results will help you decide how hot, cold, wet, or windy it might be!

Date:

Astronomy

Dec. 23, 2012 Rise Set
Actual Time 7:58 AM CST 5:15 PM CST
Civil Twilight 7:27 AM CST 5:46 PM CST
Nautical Twilight 6:53 AM CST 6:20 PM CST
Astronomical Twilight 6:19 AM CST 6:53 PM CST
Moon 2:07 PM CST (12/23) 3:41 AM CST (12/23)
Length of Visible Light 10h 18m
Length of Day
9h 17m
Waxing Gibbous, 82% of the Moon is Illuminated
Dec 23
Waxing Gibbous
Dec 28
Full
Jan 4
Last Quarter
Jan 11
New
Jan 18
First Quarter

Hourly Weather History & Observations

Time (CST) Temp. Windchill Dew Point Humidity Pressure Visibility Wind Dir Wind Speed Gust Speed Precip Events Conditions
12:15 AM 19.2 °F 11.3 °F 15.4 °F 85% 29.98 in 10.0 mi NNE 5.8 mph - N/A   Clear
12:35 AM 18.0 °F 7.7 °F 14.5 °F 86% 29.99 in 10.0 mi North 8.1 mph - N/A   Clear
12:55 AM 17.2 °F 4.5 °F 13.3 °F 84% 29.99 in 10.0 mi North 11.5 mph - N/A   Clear
1:15 AM 15.4 °F 3.0 °F 12.4 °F 88% 29.99 in 10.0 mi North 10.4 mph - N/A   Clear
1:35 AM 14.0 °F 3.9 °F 11.1 °F 88% 29.98 in 10.0 mi North 6.9 mph - N/A   Clear
1:55 AM 14.9 °F 3.1 °F 12.2 °F 89% 29.98 in 10.0 mi North 9.2 mph - N/A   Clear
2:15 AM 15.4 °F 5.6 °F 13.3 °F 91% 29.99 in 10.0 mi North 6.9 mph - N/A   Clear
2:35 AM 14.4 °F 6.9 °F 11.7 °F 89% 29.99 in 10.0 mi NW 4.6 mph - N/A   Clear
2:55 AM 12.9 °F 1.6 °F 10.6 °F 90% 30.00 in 10.0 mi NNW 8.1 mph - N/A   Clear
3:15 AM 13.3 °F 4.2 °F 10.9 °F 90% 29.99 in 10.0 mi North 5.8 mph - N/A   Clear
3:35 AM 10.2 °F -2.7 °F 7.3 °F 88% 29.98 in 10.0 mi North 9.2 mph - N/A   Clear
3:55 AM 14.2 °F 2.2 °F 12.0 °F 91% 29.98 in 10.0 mi North 9.2 mph - N/A   Clear
4:15 AM 12.0 °F 0.5 °F 9.3 °F 89% 29.97 in 7.0 mi North 8.1 mph - N/A   Clear
4:35 AM 13.5 °F 1.3 °F 10.9 °F 90% 29.97 in 10.0 mi North 9.2 mph - N/A   Clear
4:55 AM 13.1 °F 4.0 °F 10.4 °F 89% 29.97 in 7.0 mi North 5.8 mph - N/A   Clear
5:15 AM 8.2 °F -5.1 °F 5.0 °F 87% 29.96 in 10.0 mi NNE 9.2 mph - N/A   Clear
5:35 AM 8.6 °F -3.7 °F 5.9 °F 89% 29.96 in 7.0 mi North 8.1 mph - N/A   Clear
5:55 AM 10.8 °F 0.0 °F 8.1 °F 89% 29.96 in 7.0 mi North 6.9 mph - N/A   Clear
6:15 AM 7.7 °F -0.9 °F 4.5 °F 87% 29.96 in 5.0 mi NE 4.6 mph - N/A   Scattered Clouds
6:35 AM 8.2 °F -0.3 °F 5.5 °F 89% 29.97 in 0.8 mi North 4.6 mph - N/A   Overcast
6:55 AM 10.6 °F 4.3 °F 7.7 °F 88% 29.96 in 0.2 mi NNE 3.5 mph - N/A Fog Light Freezing Fog
7:15 AM 11.1 °F 4.9 °F 8.1 °F 87% 29.96 in 0.2 mi North 3.5 mph - N/A Fog Light Freezing Fog
7:35 AM 11.7 °F 5.5 °F 8.6 °F 88% 29.95 in 0.2 mi NNE 3.5 mph - N/A Fog Light Freezing Fog
7:55 AM 12.0 °F 5.9 °F 9.1 °F 88% 29.94 in 0.2 mi NNE 3.5 mph - N/A Fog Light Freezing Fog
8:15 AM 12.6 °F 6.5 °F 9.7 °F 88% 29.95 in 0.5 mi North 3.5 mph - N/A Fog Light Freezing Fog
8:35 AM 12.9 °F 5.2 °F 10.2 °F 89% 29.96 in 0.2 mi North 4.6 mph - N/A Fog Light Freezing Fog
8:55 AM 12.9 °F 6.9 °F 10.2 °F 89% 29.96 in 0.2 mi NNE 3.5 mph - N/A Fog Light Freezing Fog
9:15 AM 13.1 °F 7.1 °F 10.4 °F 89% 29.97 in 0.5 mi North 3.5 mph - N/A Snow Light Snow
9:35 AM 13.3 °F - 10.6 °F 89% 29.97 in 0.2 mi Calm Calm - N/A Fog Light Freezing Fog
9:55 AM 13.1 °F - 10.4 °F 89% 29.97 in 0.2 mi Calm Calm - N/A Fog Light Freezing Fog
10:15 AM 14.0 °F - 11.3 °F 89% 29.97 in 0.2 mi Calm Calm - N/A Fog Light Freezing Fog
10:35 AM 14.0 °F - 11.3 °F 89% 29.99 in 0.2 mi Calm Calm - N/A Fog Light Freezing Fog
10:55 AM 14.4 °F - 11.7 °F 89% 29.99 in 0.2 mi Calm Calm - N/A Fog Light Freezing Fog
11:15 AM 14.9 °F - 12.4 °F 90% 29.99 in 0.5 mi Calm Calm - N/A Fog Light Freezing Fog
11:35 AM 15.3 °F - 12.7 °F 90% 29.97 in 0.2 mi Calm Calm - N/A Fog Light Freezing Fog
11:55 AM 15.6 °F - 13.1 °F 90% 29.97 in 0.2 mi Calm Calm - N/A Fog Light Freezing Fog
12:15 PM 16.7 °F 9.6 °F 14.2 °F 90% 29.97 in 1.5 mi WNW 4.6 mph - N/A   Overcast
12:35 PM 16.7 °F 9.6 °F 14.4 °F 91% 29.95 in 1.5 mi West 4.6 mph - N/A   Overcast
12:55 PM 16.9 °F 8.5 °F 14.4 °F 90% 29.94 in 2.0 mi WNW 5.8 mph - N/A   Overcast
1:15 PM 16.7 °F - 14.2 °F 90% 29.93 in 3.0 mi Calm Calm - N/A   Mostly Cloudy
1:35 PM 17.6 °F - 15.4 °F 91% 29.93 in 4.0 mi Calm Calm - N/A   Scattered Clouds
1:55 PM 18.5 °F - 16.5 °F 92% 29.91 in 5.0 mi Calm Calm - N/A   Clear
2:15 PM 19.0 °F 13.9 °F 16.9 °F 91% 29.91 in 5.0 mi WNW 3.5 mph - N/A   Clear
2:35 PM 19.4 °F 14.3 °F 17.4 °F 92% 29.91 in 7.0 mi WNW 3.5 mph - N/A   Clear
2:55 PM 19.9 °F 12.1 °F 17.8 °F 91% 29.91 in 7.0 mi West 5.8 mph - N/A   Clear
3:15 PM 20.7 °F 11.9 °F 18.5 °F 91% 29.90 in 10.0 mi SW 6.9 mph - N/A   Clear
3:35 PM 20.3 °F 11.5 °F 18.3 °F 92% 29.90 in 10.0 mi WSW 6.9 mph - N/A   Clear
3:55 PM 20.8 °F 10.4 °F 18.5 °F 91% 29.90 in 10.0 mi West 9.2 mph - N/A   Clear
4:15 PM 21.0 °F 9.9 °F 18.9 °F 91% 29.90 in 10.0 mi West 10.4 mph - N/A   Clear
4:35 PM 21.4 °F 11.9 °F 19.4 °F 92% 29.91 in 7.0 mi WNW 8.1 mph - N/A   Clear
4:55 PM 21.2 °F 12.6 °F 19.0 °F 91% 29.90 in 10.0 mi WNW 6.9 mph - N/A   Clear
5:15 PM 20.5 °F 10.8 °F 17.6 °F 89% 29.91 in 10.0 mi WNW 8.1 mph - N/A   Clear
5:35 PM 20.8 °F 12.1 °F 17.4 °F 87% 29.91 in 10.0 mi WNW 6.9 mph - N/A   Clear
5:55 PM 19.2 °F 11.3 °F 15.6 °F 86% 29.92 in 10.0 mi NW 5.8 mph - N/A   Clear
6:15 PM 19.2 °F 14.1 °F 16.2 °F 88% 29.92 in 10.0 mi North 3.5 mph - N/A   Clear
6:35 PM 18.3 °F 11.5 °F 15.1 °F 87% 29.92 in 10.0 mi NNW 4.6 mph - N/A   Clear
6:55 PM 18.1 °F 8.9 °F 15.1 °F 88% 29.94 in 7.0 mi NNW 6.9 mph - N/A   Clear
7:15 PM 16.7 °F 7.2 °F 13.8 °F 88% 29.96 in 10.0 mi NW 6.9 mph - N/A   Clear
7:35 PM 16.7 °F 7.2 °F 14.0 °F 89% 29.96 in 10.0 mi WNW 6.9 mph - N/A   Clear
7:55 PM 16.2 °F 6.5 °F 13.3 °F 88% 29.97 in 10.0 mi WNW 6.9 mph - N/A   Clear
8:15 PM 15.8 °F 5.1 °F 12.7 °F 88% 29.97 in 10.0 mi NW 8.1 mph - N/A   Clear
8:55 PM 23.5 °F 13.0 °F 18.9 °F 82% 29.99 in 10.0 mi North 10.4 mph - N/A   Clear
9:15 PM 22.1 °F 12.0 °F 17.4 °F 82% 30.00 in 10.0 mi NNW 9.2 mph - N/A   Clear
9:35 PM 22.6 °F 12.6 °F 17.6 °F 81% 30.00 in 10.0 mi North 9.2 mph - N/A   Clear
9:55 PM 22.1 °F 10.6 °F 16.7 °F 80% 30.00 in 10.0 mi North 11.5 mph - N/A   Clear
10:15 PM 20.8 °F 9.0 °F 15.6 °F 80% 30.01 in 10.0 mi North 11.5 mph - N/A   Clear
10:35 PM 18.3 °F 7.3 °F 13.6 °F 82% 30.01 in 10.0 mi North 9.2 mph - N/A   Clear
10:55 PM 15.6 °F 4.0 °F 12.0 °F 86% 30.01 in 10.0 mi North 9.2 mph - N/A   Clear
11:15 PM 14.5 °F 4.6 °F 10.9 °F 86% 30.01 in 10.0 mi North 6.9 mph - N/A   Clear
11:35 PM 13.6 °F 2.5 °F 10.0 °F 86% 30.02 in 10.0 mi North 8.1 mph - N/A   Clear
11:55 PM 15.8 °F 4.2 °F 13.3 °F 90% 30.02 in 10.0 mi North 9.2 mph - N/A   Clear